TimeEST,TemperatureF,Dew PointF,Humidity,Sea Level PressureIn,VisibilityMPH,Wind Direction,Wind SpeedMPH,Gust SpeedMPH,PrecipitationIn,Events,Conditions,WindDirDegrees,DateUTC
12:51 AM,10.0,-0.0,64,30.40,10.0,NNE,12.7,-,N/A,,Overcast,20,2014-01-02 05:51:00
1:51 AM,8.1,-2.0,64,30.41,10.0,NNE,11.5,-,N/A,,Overcast,30,2014-01-02 06:51:00
2:51 AM,7.0,-2.9,64,30.41,10.0,NNE,10.4,-,N/A,,Overcast,20,2014-01-02 07:51:00
3:51 AM,5.0,-2.9,70,30.40,3.0,NNE,9.2,-,0.00,Snow,Light Snow,30,2014-01-02 08:51:00
3:59 AM,5.0,-2.9,70,30.39,2.5,NNE,10.4,-,0.00,Snow,Light Snow,30,2014-01-02 08:59:00
4:23 AM,3.9,-2.9,73,30.39,3.0,NNE,9.2,-,0.01,Snow,Light Snow,20,2014-01-02 09:23:00
4:51 AM,3.9,-2.9,73,30.40,2.0,NNE,8.1,-,0.01,Snow,Light Snow,30,2014-01-02 09:51:00
5:20 AM,3.0,-5.1,69,30.41,2.0,NE,10.4,-,0.00,Snow,Light Snow,40,2014-01-02 10:20:00
5:51 AM,1.9,-4.0,76,30.42,1.2,NNE,12.7,-,0.01,Snow,Light Snow,20,2014-01-02 10:51:00
6:36 AM,1.9,-2.9,80,30.42,1.0,North,10.4,-,0.02,Snow,Light Snow,360,2014-01-02 11:36:00
6:51 AM,1.9,-2.9,80,30.42,0.8,NNE,10.4,-,0.03,Snow,Light Snow,30,2014-01-02 11:51:00
7:51 AM,1.0,-5.1,75,30.42,0.8,NNE,6.9,-,0.02,Snow,Light Snow,20,2014-01-02 12:51:00
8:51 AM,-0.0,-7.1,72,30.43,0.8,NNE,15.0,-,0.01,Snow,Light Snow,30,2014-01-02 13:51:00
9:51 AM,-0.0,-6.0,76,30.42,0.8,NNE,15.0,20.7,0.01,Snow,Light Snow,30,2014-01-02 14:51:00
10:51 AM,-0.0,-7.1,72,30.40,0.8,NNE,11.5,-,0.00,Snow,Light Snow,30,2014-01-02 15:51:00
11:06 AM,-0.0,-7.1,72,30.37,1.5,NNE,15.0,-,0.01,Snow,Light Snow,30,2014-01-02 16:06:00
11:51 AM,-0.0,-8.0,69,30.34,1.5,NNE,12.7,-,0.01,Snow,Light Snow,20,2014-01-02 16:51:00
12:15 PM,-0.0,-8.0,69,30.31,1.5,NNE,16.1,21.9,0.00,Snow,Light Snow,30,2014-01-02 17:15:00
12:39 PM,-0.9,-7.1,75,30.29,1.0,NNE,13.8,-,0.01,Snow,Light Snow,20,2014-01-02 17:39:00
12:51 PM,-0.0,-7.1,72,30.30,1.2,NNE,12.7,-,0.01,Snow,Light Snow,30,2014-01-02 17:51:00
12:58 PM,-0.0,-7.1,72,30.28,1.8,NNE,15.0,-,0.00,Snow,Light Snow,30,2014-01-02 17:58:00
1:25 PM,-0.0,-7.1,72,30.27,2.0,North,11.5,-,0.00,Snow,Light Snow,10,2014-01-02 18:25:00
1:40 PM,-0.9,-7.1,75,30.26,1.5,NNE,16.1,-,0.00,Snow,Light Snow,30,2014-01-02 18:40:00
1:49 PM,-0.4,-7.6,72,30.26,0.8,NNE,12.7,-,0.00,Snow,Light Snow,20,2014-01-02 18:49:00
1:51 PM,-0.9,-7.1,75,30.27,0.8,NNE,11.5,-,0.00,Snow,Light Snow,30,2014-01-02 18:51:00
2:27 PM,-0.9,-7.1,75,30.25,0.5,NNE,13.8,-,0.01,Snow,Snow,20,2014-01-02 19:27:00
2:51 PM,-2.0,-8.0,76,30.26,0.5,North,13.8,-,0.03,Snow,Snow,10,2014-01-02 19:51:00
3:51 PM,-2.9,-9.0,75,30.21,1.0,NNE,17.3,23.0,0.03,Snow,Light Snow,20,2014-01-02 20:51:00
4:51 PM,-4.0,-9.9,76,30.20,1.0,NNE,16.1,23.0,0.01,Snow,Light Snow,20,2014-01-02 21:51:00
5:23 PM,-4.0,-9.9,76,30.19,0.8,NNE,13.8,-,0.02,Snow,Light Snow,20,2014-01-02 22:23:00
5:51 PM,-5.1,-9.9,80,30.19,0.5,NNE,13.8,-,0.05,Snow,Light Snow,20,2014-01-02 22:51:00
6:31 PM,-5.1,-9.9,80,30.18,0.5,NNE,12.7,-,0.03,Snow,Light Snow,30,2014-01-02 23:31:00
6:41 PM,-5.1,-11.0,76,30.17,0.5,NNE,15.0,23.0,0.03,Snow,Light Snow,20,2014-01-02 23:41:00
6:51 PM,-5.1,-9.9,80,30.18,0.5,NNE,16.1,-,0.04,Snow,Light Snow,20,2014-01-02 23:51:00
7:10 PM,-5.1,-11.0,76,30.17,0.8,NNE,17.3,-,0.01,Snow,Light Snow,20,2014-01-03 00:10:00
7:28 PM,-5.1,-11.0,76,30.15,1.0,NNE,16.1,-,0.02,Snow,Light Snow,20,2014-01-03 00:28:00
7:51 PM,-5.1,-11.0,76,30.15,0.8,North,15.0,-,0.04,Snow,Light Snow,10,2014-01-03 00:51:00
8:12 PM,-5.1,-11.0,76,30.12,0.5,NNE,15.0,23.0,0.01,Snow,Snow,20,2014-01-03 01:12:00
8:51 PM,-5.1,-11.0,76,30.11,0.8,North,15.0,26.5,0.04,Snow,Light Snow,10,2014-01-03 01:51:00
8:58 PM,-5.1,-11.0,76,30.10,1.0,North,15.0,-,0.00,Snow,Light Snow,10,2014-01-03 01:58:00
9:29 PM,-5.1,-11.0,76,30.07,0.5,North,15.0,23.0,0.01,Snow,Snow,10,2014-01-03 02:29:00
9:51 PM,-5.1,-11.0,76,30.08,0.8,North,17.3,24.2,0.03,Snow,Light Snow,360,2014-01-03 02:51:00
10:51 PM,-5.1,-11.0,76,30.03,1.0,North,19.6,24.2,0.02,Snow,Light Snow,10,2014-01-03 03:51:00
11:24 PM,-6.0,-11.0,79,30.01,0.8,North,17.3,26.5,0.01,Snow,Light Snow,10,2014-01-03 04:24:00
11:51 PM,-5.1,-11.0,76,29.99,0.8,North,19.6,24.2,0.03,Snow,Light Snow,10,2014-01-03 04:51:00